(116) Sirona
ephemeris date magn radius delta ra dec elong phase
Today2 Jul 202512.92.401 AU3.253 AU08h43m+20°47'27.8°11.4°
Opposition3 May 202610.92.568 AU1.560 AU14h44m-13°44'177.9°0.8°
(116) Sirona - 2025-07-02
astro.vanbuitenen.nl


 
-1 year
-1 month
-1 day
Now
+1 day
+1 month
+1 year

The interactive orbit chart above shows the body's path through the solar system and its position at the given date. Green and blue lines are shown perpendicular to the ecliptic plane: Green if the path is above the ecliptic plane, blue if it is below. (Left-click and drag to rotate the view; Right-click and drag to move the view; Use scroll wheel to zoom in our out.)

The orbital elements of Sirona are:

            e (Eccentricity)                : 0.1383098
            a (Semimajor axis)              : 2.7692364
            i (Inclination)                 : 3.56144
            Ω (Longitude of ascending node) : 63.68037
            ω (Argument of perihelion)      : 93.90772
            M (Mean anomaly)                : 333.74194
            Epoch                           : 2025 May 05

            L (Longitude of perihelion)     : -22.40437
            B (Latitude of perihelion)      : 3.55315
            P (Orbital period in years)     : 4.61            
        

The light curve chart below shows the estimated development of the minor planet's magnitude.


The all-sky chart below shows the path of the minor planet over the same period as the light curve. The current position is marked yellow.





The following chart shows the path of the minor planet in the next few days. The field of view is optimized for (~10x50) binoculars and finderscopes. A more printer-friendly version of the same chart can be found below.




Ephemerides:
Date       Time       RA (2000)    DEC (2000)    delta   radius  elong  phase   PA    magn
2025-07-02 00:00 UT   08 43 31.3   +20 47 01     3.253    2.401   27.8   11.4   100   12.9 
2025-07-02 02:15 UT   08 43 42.2   +20 46 19     3.253    2.401   27.8   11.4   100   12.9 
2025-07-03 00:00 UT   08 45 26.7   +20 39 37     3.258    2.401   27.4   11.2   100   12.9 
2025-07-04 00:00 UT   08 47 22.1   +20 32 08     3.263    2.400   26.9   11.0   100   12.9 
2025-07-05 00:00 UT   08 49 17.5   +20 24 35     3.268    2.400   26.4   10.9   100   12.9 
2025-07-06 00:00 UT   08 51 12.8   +20 16 57     3.272    2.399   25.9   10.7   100   12.9 
2025-07-07 00:00 UT   08 53 08.2   +20 09 14     3.277    2.399   25.4   10.5   100   12.9 
2025-07-08 00:00 UT   08 55 03.5   +20 01 26     3.282    2.399   24.9   10.3   101   12.9 
2025-07-09 00:00 UT   08 56 58.8   +19 53 34     3.286    2.398   24.5   10.1   101   12.9 
2025-07-10 00:00 UT   08 58 54.0   +19 45 38     3.291    2.398   24.0    9.9   101   12.9 
2025-07-11 00:00 UT   09 00 49.2   +19 37 37     3.295    2.397   23.5    9.7   101   12.9 
2025-07-12 00:00 UT   09 02 44.4   +19 29 31     3.299    2.397   23.0    9.6   101   12.9 
2025-07-13 00:00 UT   09 04 39.6   +19 21 21     3.303    2.397   22.6    9.4   101   12.9 
2025-07-14 00:00 UT   09 06 34.7   +19 13 06     3.307    2.396   22.1    9.2   101   12.9 
2025-07-15 00:00 UT   09 08 29.7   +19 04 47     3.311    2.396   21.6    9.0   101   12.9 
2025-07-16 00:00 UT   09 10 24.8   +18 56 24     3.315    2.395   21.1    8.8   101   12.9 
2025-07-17 00:00 UT   09 12 19.7   +18 47 56     3.319    2.395   20.6    8.6   100   12.9 
2025-07-18 00:00 UT   09 14 14.7   +18 39 24     3.323    2.395   20.2    8.4   100   12.9 
2025-07-19 00:00 UT   09 16 09.5   +18 30 48     3.326    2.394   19.7    8.2   100   12.9 
2025-07-20 00:00 UT   09 18 04.4   +18 22 07     3.330    2.394   19.2    8.0   100   12.9 


    Terminology:
            
    delta:  distance between minor planet and earth in AU
    radius: distance between minor planet and sun in AU
    magn:   magnitude (brightness) estimate    
    ra:     right ascension in hours (24h = 360deg)
    dec:    declination in degrees
    elong:  elongation in degrees (angle sun-earth-minor planet)    
    phase:  phase angle in degrees (angle sun-minor planet-earth)        
    AU:     Astronomical Unit (mean distance between earth and sun: 149597870.7 km
    

Orbital elements provided by the MPC (Minor Planet Center).
Calculations by a modified version of AAPlus, a C# implementation of the AA+ project by PJ Naughter from the algorithms presented in the book "Astronomical Algorithms" by Jean Meeus.
NGC2000 dso catalog and star labels from VizieR as provided by the Strasbourg astronomical Data Center.
Tycho2 catalog from the ESO archive.